Dades meteomassalio
Diari Summary for Juny 8, 2017 Units:  Metric    English   Both
« Previous Day
Next Day »
Diari Semanal Mensual Anual Personalitzat
  Maxima: Minima: Mijana:
Temperatura: 30.1 °C 14.0 °C 22.7 °C
Rosada: 19.1 °C 11.7 °C 15.7 °C
Humitat: 92 % 44 % 68 %
Velocitat del vent: 29.6 km/h 0.0 km/h 7.9 km/h
Racha vent: 29.6 km/h - -
Vent:- - ESE
Pressio: 1018.5 hPa 1011.4 hPa -
Pluja: 0.0 mm    
Historical Graphs
 
 
Tabular Data for Juny 8, 2017
Time Temperature Dew Point Pressure Wind Wind Speed Wind Gust Humidity Rainfall Rate (Hourly) solar Conditions
00:00 19.3 °C 16.0 °C 1018.5 hPa Calm     81 % 0.0 mm 0.0 W/m2 CLR
00:05 19.2 °C 16.1 °C 1018.5 hPa Calm     82 % 0.0 mm 0.0 W/m2 CLR
00:10 19.1 °C 15.9 °C 1018.5 hPa Calm     82 % 0.0 mm 0.0 W/m2 CLR
00:15 18.9 °C 16.0 °C 1018.5 hPa Calm     83 % 0.0 mm 0.0 W/m2 CLR
00:20 18.9 °C 16.0 °C 1018.5 hPa Calm     83 % 0.0 mm 0.0 W/m2 CLR
00:25 18.9 °C 16.2 °C 1018.5 hPa Calm     84 % 0.0 mm 0.0 W/m2 CLR
00:30 19.0 °C 16.2 °C 1018.5 hPa Calm     84 % 0.0 mm 0.0 W/m2 CLR
00:35 19.1 °C 16.3 °C 1018.5 hPa Calm     84 % 0.0 mm 0.0 W/m2 CLR
00:40 19.1 °C 16.3 °C 1018.5 hPa Calm     84 % 0.0 mm 0.0 W/m2 CLR
00:45 19.0 °C 16.2 °C 1018.5 hPa Calm     84 % 0.0 mm 0.0 W/m2 CLR
00:50 18.9 °C 16.1 °C 1018.5 hPa Calm     84 % 0.0 mm 0.0 W/m2 CLR
00:55 18.8 °C 16.1 °C 1018.5 hPa Calm     84 % 0.0 mm 0.0 W/m2 CLR
01:00 18.7 °C 15.9 °C 1018.5 hPa Calm     84 % 0.0 mm 0.0 W/m2 CLR
01:05 18.7 °C 16.1 °C 1018.5 hPa Calm     85 % 0.0 mm 0.0 W/m2 CLR
01:10 18.7 °C 16.2 °C 1018.5 hPa Calm     85 % 0.0 mm 0.0 W/m2 CLR
01:15 18.8 °C 16.2 °C 1018.5 hPa Calm     85 % 0.0 mm 0.0 W/m2 CLR
01:20 18.7 °C 16.2 °C 1018.2 hPa Calm     85 % 0.0 mm 0.0 W/m2 CLR
01:25 18.6 °C 16.1 °C 1018.2 hPa Calm     85 % 0.0 mm 0.0 W/m2 CLR
01:30 18.6 °C 16.2 °C 1018.2 hPa Calm     86 % 0.0 mm 0.0 W/m2 CLR
01:35 18.5 °C 16.1 °C 1018.2 hPa Calm     86 % 0.0 mm 0.0 W/m2 CLR
01:40 18.4 °C 16.0 °C 1018.2 hPa Calm     86 % 0.0 mm 0.0 W/m2 CLR
01:45 18.3 °C 15.9 °C 1018.2 hPa Calm     86 % 0.0 mm 0.0 W/m2 CLR
01:50 18.2 °C 16.0 °C 1018.2 hPa Calm     87 % 0.0 mm 0.0 W/m2 CLR
01:55 18.1 °C 15.9 °C 1018.2 hPa Calm     87 % 0.0 mm 0.0 W/m2 CLR
02:00 18.1 °C 15.8 °C 1018.2 hPa Calm     87 % 0.0 mm 0.0 W/m2 CLR
02:05 17.9 °C 15.7 °C 1018.2 hPa Calm     87 % 0.0 mm 0.0 W/m2 CLR
02:10 17.8 °C 15.6 °C 1018.2 hPa Calm     87 % 0.0 mm 0.0 W/m2 CLR
02:15 17.7 °C 15.5 °C 1018.2 hPa Calm     87 % 0.0 mm 0.0 W/m2 CLR
02:20 17.5 °C 15.3 °C 1018.2 hPa Calm     87 % 0.0 mm 0.0 W/m2 CLR
02:25 17.4 °C 15.4 °C 1018.2 hPa Calm     88 % 0.0 mm 0.0 W/m2 CLR
02:30 17.3 °C 15.3 °C 1018.2 hPa Calm     88 % 0.0 mm 0.0 W/m2 CLR
02:35 17.2 °C 15.2 °C 1018.2 hPa Calm     88 % 0.0 mm 0.0 W/m2 CLR
02:40 17.2 °C 15.4 °C 1017.8 hPa Calm     89 % 0.0 mm 0.0 W/m2 CLR
02:45 17.3 °C 15.4 °C 1017.8 hPa Calm     89 % 0.0 mm 0.0 W/m2 CLR
02:50 17.2 °C 15.4 °C 1017.8 hPa Calm     89 % 0.0 mm 0.0 W/m2 CLR
02:55 17.1 °C 15.3 °C 1017.8 hPa Calm     89 % 0.0 mm 0.0 W/m2 CLR
03:00 17.0 °C 15.2 °C 1017.8 hPa Calm     89 % 0.0 mm 0.0 W/m2 CLR
03:05 16.9 °C 15.1 °C 1017.8 hPa Calm     89 % 0.0 mm 0.0 W/m2 CLR
03:10 16.8 °C 14.9 °C 1017.8 hPa Calm     89 % 0.0 mm 0.0 W/m2 CLR
03:15 16.7 °C 15.0 °C 1017.8 hPa Calm     90 % 0.0 mm 0.0 W/m2 CLR
03:20 16.7 °C 15.0 °C 1017.8 hPa Calm     90 % 0.0 mm 0.0 W/m2 CLR
03:25 16.6 °C 14.9 °C 1017.8 hPa Calm     90 % 0.0 mm 0.0 W/m2 CLR
03:30 16.4 °C 14.8 °C 1017.8 hPa Calm     90 % 0.0 mm 0.0 W/m2 CLR
03:35 16.3 °C 14.7 °C 1017.8 hPa Calm     90 % 0.0 mm 0.0 W/m2 CLR
03:40 16.3 °C 14.6 °C 1017.8 hPa Calm     90 % 0.0 mm 0.0 W/m2 CLR
03:45 16.2 °C 14.5 °C 1017.8 hPa Calm     90 % 0.0 mm 0.0 W/m2 CLR
03:46 16.1 °C 14.4 °C 1017.8 hPa Calm     90 % 0.0 mm 0.0 W/m2 CLR
03:51 16.0 °C 14.3 °C 1017.8 hPa Calm     90 % 0.0 mm 0.0 W/m2 CLR
03:56 15.9 °C 14.3 °C 1017.8 hPa Calm     90 % 0.0 mm 0.0 W/m2 CLR
04:01 15.8 °C 14.2 °C 1017.8 hPa Calm     90 % 0.0 mm 0.0 W/m2 CLR
04:06 15.8 °C 14.2 °C 1017.5 hPa Calm     90 % 0.0 mm 0.0 W/m2 CLR
04:11 15.8 °C 14.2 °C 1017.5 hPa Calm     90 % 0.0 mm 0.0 W/m2 CLR
04:17 15.7 °C 14.1 °C 1017.8 hPa Calm     90 % 0.0 mm 0.0 W/m2 CLR
04:22 15.6 °C 14.2 °C 1017.8 hPa Calm     91 % 0.0 mm 0.0 W/m2 CLR
04:27 15.5 °C 14.1 °C 1017.5 hPa Calm     91 % 0.0 mm 0.0 W/m2 CLR
04:32 15.5 °C 14.1 °C 1017.8 hPa Calm     91 % 0.0 mm 0.0 W/m2 CLR
04:37 15.4 °C 14.0 °C 1017.8 hPa Calm     91 % 0.0 mm 0.0 W/m2 CLR
04:42 15.4 °C 13.9 °C 1017.8 hPa Calm     91 % 0.0 mm 0.0 W/m2 CLR
04:47 15.3 °C 13.8 °C 1017.5 hPa Calm     91 % 0.0 mm 0.0 W/m2 CLR
04:52 15.2 °C 13.8 °C 1017.5 hPa Calm     91 % 0.0 mm 0.0 W/m2 CLR
04:57 15.2 °C 13.7 °C 1017.5 hPa Calm     91 % 0.0 mm 0.0 W/m2 CLR
05:02 15.1 °C 13.7 °C 1017.5 hPa Calm     91 % 0.0 mm 0.0 W/m2 CLR
05:07 15.1 °C 13.7 °C 1017.5 hPa Calm     91 % 0.0 mm 0.0 W/m2 CLR
05:12 15.1 °C 13.6 °C 1017.5 hPa Calm     91 % 0.0 mm 0.0 W/m2 CLR
05:22 14.9 °C 13.4 °C 1017.5 hPa Calm     91 % 0.0 mm 0.0 W/m2 CLR
05:27 14.8 °C 13.3 °C 1017.5 hPa Calm     91 % 0.0 mm 0.0 W/m2 CLR
05:33 14.7 °C 13.3 °C 1017.5 hPa Calm     91 % 0.0 mm 0.0 W/m2 CLR
05:38 14.7 °C 13.4 °C 1017.5 hPa Calm     92 % 0.0 mm 0.0 W/m2 CLR
05:43 14.6 °C 13.3 °C 1017.5 hPa Calm     92 % 0.0 mm 0.0 W/m2 CLR
05:48 14.6 °C 13.3 °C 1017.5 hPa Calm     92 % 0.0 mm 0.0 W/m2 CLR
05:53 14.5 °C 13.2 °C 1017.5 hPa Calm     92 % 0.0 mm 0.0 W/m2 CLR
05:58 14.4 °C 13.2 °C 1017.5 hPa Calm     92 % 0.0 mm 0.0 W/m2 CLR
06:03 14.4 °C 13.1 °C 1017.5 hPa Calm     92 % 0.0 mm 0.0 W/m2 CLR
06:08 14.3 °C 13.1 °C 1017.5 hPa Calm     92 % 0.0 mm 0.0 W/m2 CLR
06:13 14.3 °C 13.0 °C 1017.5 hPa Calm     92 % 0.0 mm 0.0 W/m2 CLR
06:18 14.2 °C 12.9 °C 1017.5 hPa Calm     92 % 0.0 mm 0.0 W/m2 OVC
06:23 14.2 °C 12.9 °C 1017.5 hPa Calm     92 % 0.0 mm 0.0 W/m2 OVC
06:28 14.1 °C 12.8 °C 1017.8 hPa Calm     92 % 0.0 mm 0.0 W/m2 OVC
06:33 14.1 °C 12.8 °C 1017.8 hPa Calm     92 % 0.0 mm 7.0 W/m2 BKN
06:38 14.0 °C 12.7 °C 1017.8 hPa Calm     92 % 0.0 mm 9.0 W/m2 BKN
06:43 14.0 °C 12.7 °C 1017.8 hPa Calm     92 % 0.0 mm 12.0 W/m2 BKN
06:48 14.0 °C 12.7 °C 1017.8 hPa Calm     92 % 0.0 mm 14.0 W/m2 BKN
06:53 14.0 °C 12.7 °C 1017.8 hPa Calm     92 % 0.0 mm 18.0 W/m2 BKN
06:58 14.0 °C 12.7 °C 1017.8 hPa Calm     92 % 0.0 mm 21.0 W/m2 BKN
07:03 14.1 °C 12.8 °C 1017.8 hPa Calm     92 % 0.0 mm 26.0 W/m2 BKN
07:08 14.2 °C 12.9 °C 1017.8 hPa Calm     92 % 0.0 mm 35.0 W/m2 BKN
07:13 14.3 °C 13.0 °C 1017.8 hPa Calm     92 % 0.0 mm 42.0 W/m2 BKN
07:18 14.4 °C 13.2 °C 1017.8 hPa Calm     92 % 0.0 mm 53.0 W/m2 SCT
07:23 14.5 °C 13.2 °C 1017.8 hPa Calm     92 % 0.0 mm 63.0 W/m2 SCT
07:28 14.6 °C 13.3 °C 1017.8 hPa Calm     92 % 0.0 mm 47.0 W/m2 SCT
07:33 14.6 °C 13.3 °C 1017.8 hPa Calm     92 % 0.0 mm 49.0 W/m2 FEW
07:38 14.7 °C 13.4 °C 1017.8 hPa Calm     92 % 0.0 mm 88.0 W/m2 SCT
07:43 14.9 °C 13.6 °C 1017.8 hPa Calm     92 % 0.0 mm 114.0 W/m2 FEW
07:48 15.1 °C 13.8 °C 1017.8 hPa Calm     92 % 0.0 mm 104.0 W/m2 CLR
07:53 15.3 °C 14.0 °C 1017.8 hPa Calm     92 % 0.0 mm 70.0 W/m2 CLR
07:58 15.4 °C 14.1 °C 1017.8 hPa Calm     92 % 0.0 mm 120.0 W/m2 CLR
08:03 15.5 °C 14.2 °C 1017.8 hPa Calm     92 % 0.0 mm 98.0 W/m2 CLR
08:08 15.6 °C 14.3 °C 1017.8 hPa Calm     92 % 0.0 mm 79.0 W/m2 CLR
08:13 15.6 °C 14.2 °C 1017.8 hPa Calm     91 % 0.0 mm 121.0 W/m2 CLR
08:18 15.8 °C 14.5 °C 1017.8 hPa Calm     92 % 0.0 mm 137.0 W/m2 CLR
08:23 16.0 °C 14.7 °C 1017.8 hPa Calm     92 % 0.0 mm 135.0 W/m2 CLR
08:28 16.2 °C 14.9 °C 1017.8 hPa Calm     92 % 0.0 mm 155.0 W/m2 CLR
08:33 16.6 °C 15.3 °C 1017.8 hPa Calm     92 % 0.0 mm 141.0 W/m2 CLR
08:38 16.9 °C 15.4 °C 1017.8 hPa Calm     91 % 0.0 mm 160.0 W/m2 CLR
08:43 17.1 °C 15.6 °C 1017.8 hPa Calm     91 % 0.0 mm 227.0 W/m2 CLR
08:48 17.3 °C 15.8 °C 1017.8 hPa Calm     91 % 0.0 mm 178.0 W/m2 CLR
08:53 17.4 °C 15.9 °C 1017.8 hPa Calm     91 % 0.0 mm 195.0 W/m2 CLR
08:58 17.8 °C 16.4 °C 1017.8 hPa Calm     92 % 0.0 mm 250.0 W/m2 CLR
09:03 18.1 °C 16.6 °C 1017.8 hPa Calm     91 % 0.0 mm 367.0 W/m2 CLR
09:08 18.4 °C 16.9 °C 1017.8 hPa Calm     91 % 0.0 mm 387.0 W/m2 CLR
09:13 18.8 °C 17.0 °C 1017.5 hPa Calm     89 % 0.0 mm 383.0 W/m2 CLR
09:18 19.2 °C 17.2 °C 1017.5 hPa Calm     88 % 0.0 mm 410.0 W/m2 CLR
09:23 19.7 °C 17.4 °C 1017.5 hPa Calm     87 % 0.0 mm 434.0 W/m2 CLR
09:28 19.9 °C 17.3 °C 1017.5 hPa Calm     85 % 0.0 mm 450.0 W/m2 CLR
09:33 20.3 °C 17.7 °C 1017.5 hPa Calm     85 % 0.0 mm 464.0 W/m2 CLR
09:38 20.8 °C 17.7 °C 1017.5 hPa Calm     82 % 0.0 mm 482.0 W/m2 CLR
09:43 21.3 °C 17.9 °C 1017.5 hPa Calm     81 % 0.0 mm 494.0 W/m2 CLR
09:48 21.6 °C 17.8 °C 1017.5 hPa Calm     79 % 0.0 mm 513.0 W/m2 CLR
09:53 22.1 °C 18.1 °C 1017.5 hPa Calm     78 % 0.0 mm 527.0 W/m2 CLR
09:58 22.3 °C 18.1 °C 1017.5 hPa Calm     77 % 0.0 mm 543.0 W/m2 CLR
10:04 22.6 °C 17.7 °C 1017.5 hPa Calm   0.2 km/h 74 % 0.0 mm 561.0 W/m2 CLR
10:09 22.6 °C 17.7 °C 1017.5 hPa Calm     74 % 0.0 mm 573.0 W/m2 CLR
10:14 22.6 °C 17.7 °C 1017.5 hPa Calm     74 % 0.0 mm 584.0 W/m2 CLR
10:19 22.6 °C 17.5 °C 1017.5 hPa ENE 3.7 km/h   73 % 0.0 mm 598.0 W/m2 CLR
10:24 22.9 °C 17.8 °C 1017.2 hPa ESE 7.4 km/h 7.4 km/h 73 % 0.0 mm 613.0 W/m2 CLR
10:29 22.8 °C 17.3 °C 1017.2 hPa East 3.7 km/h 3.7 km/h 71 % 0.0 mm 628.0 W/m2 CLR
10:34 22.9 °C 17.4 °C 1017.2 hPa Calm     71 % 0.0 mm 643.0 W/m2 CLR
10:39 23.1 °C 17.8 °C 1017.2 hPa NE 1.9 km/h 1.9 km/h 72 % 0.0 mm 650.0 W/m2 CLR
10:44 23.3 °C 17.9 °C 1017.2 hPa ENE 8.0 km/h 8.0 km/h 72 % 0.0 mm 668.0 W/m2 CLR
10:49 23.5 °C 17.7 °C 1017.2 hPa Calm     70 % 0.0 mm 680.0 W/m2 CLR
10:54 23.9 °C 18.1 °C 1017.2 hPa ENE 7.4 km/h 7.4 km/h 70 % 0.0 mm 691.0 W/m2 CLR
10:59 24.2 °C 18.1 °C 1017.2 hPa West 1.9 km/h 1.9 km/h 69 % 0.0 mm 707.0 W/m2 CLR
11:04 24.3 °C 18.1 °C 1016.8 hPa SE 5.6 km/h 5.6 km/h 68 % 0.0 mm 717.0 W/m2 CLR
11:09 24.2 °C 17.9 °C 1017.2 hPa ENE 11.1 km/h 11.1 km/h 68 % 0.0 mm 731.0 W/m2 CLR
11:14 24.2 °C 17.4 °C 1016.8 hPa Calm     66 % 0.0 mm 744.0 W/m2 CLR
11:19 24.2 °C 17.9 °C 1016.8 hPa Calm     68 % 0.0 mm 747.0 W/m2 CLR
11:24 24.3 °C 17.3 °C 1016.8 hPa ENE 5.6 km/h   65 % 0.0 mm 763.0 W/m2 CLR
11:29 24.4 °C 17.7 °C 1016.8 hPa ENE 9.3 km/h 9.3 km/h 66 % 0.0 mm 773.0 W/m2 CLR
11:34 24.7 °C 17.7 °C 1016.8 hPa North 3.7 km/h 3.7 km/h 65 % 0.0 mm 784.0 W/m2 CLR
11:39 24.8 °C 17.6 °C 1016.8 hPa NE 8.0 km/h 8.0 km/h 64 % 0.0 mm 786.0 W/m2 CLR
11:44 24.8 °C 17.3 °C 1016.8 hPa NNW 9.3 km/h 9.3 km/h 63 % 0.0 mm 803.0 W/m2 CLR
11:49 24.9 °C 17.7 °C 1016.8 hPa Calm     64 % 0.0 mm 812.0 W/m2 CLR
11:54 25.3 °C 17.5 °C 1016.8 hPa Calm     62 % 0.0 mm 819.0 W/m2 CLR
11:59 25.7 °C 17.6 °C 1016.5 hPa Calm     61 % 0.0 mm 831.0 W/m2 CLR
12:04 26.0 °C 17.9 °C 1016.5 hPa NE 9.3 km/h 9.3 km/h 61 % 0.0 mm 840.0 W/m2 CLR
12:09 26.3 °C 17.7 °C 1016.5 hPa North 5.6 km/h 5.6 km/h 59 % 0.0 mm 844.0 W/m2 CLR
12:14 26.2 °C 17.5 °C 1016.5 hPa Calm     59 % 0.0 mm 854.0 W/m2 CLR
12:19 26.3 °C 17.9 °C 1016.1 hPa NE 11.1 km/h 11.1 km/h 60 % 0.0 mm 861.0 W/m2 CLR
12:24 26.4 °C 18.1 °C 1016.1 hPa Calm     60 % 0.0 mm 867.0 W/m2 CLR
12:29 26.7 °C 17.7 °C 1016.1 hPa NE 7.4 km/h 7.4 km/h 58 % 0.0 mm 877.0 W/m2 CLR
12:34 26.7 °C 17.8 °C 1016.1 hPa NE 14.8 km/h 14.8 km/h 58 % 0.0 mm 874.0 W/m2 CLR
12:39 26.8 °C 17.6 °C 1016.1 hPa North 5.6 km/h 5.6 km/h 57 % 0.0 mm 891.0 W/m2 CLR
12:44 26.9 °C 17.7 °C 1016.1 hPa North 8.0 km/h 8.0 km/h 57 % 0.0 mm 884.0 W/m2 CLR
12:49 26.9 °C 17.7 °C 1016.1 hPa NNW 14.8 km/h 14.8 km/h 57 % 0.0 mm 898.0 W/m2 CLR
12:54 27.0 °C 17.8 °C 1015.8 hPa NE 16.7 km/h 16.7 km/h 57 % 0.0 mm 905.0 W/m2 CLR
12:59 27.4 °C 17.9 °C 1015.8 hPa NNE 11.1 km/h 11.1 km/h 56 % 0.0 mm 902.0 W/m2 CLR
13:04 27.6 °C 18.1 °C 1015.8 hPa East 9.3 km/h 9.3 km/h 56 % 0.0 mm 912.0 W/m2 CLR
13:09 27.6 °C 17.4 °C 1015.8 hPa NE 13.0 km/h 13.0 km/h 54 % 0.0 mm 918.0 W/m2 CLR
13:14 27.6 °C 17.4 °C 1015.8 hPa SE 8.0 km/h 8.0 km/h 54 % 0.0 mm 923.0 W/m2 CLR
13:19 27.6 °C 17.4 °C 1015.8 hPa ENE 3.7 km/h 3.7 km/h 54 % 0.0 mm 925.0 W/m2 CLR
13:24 27.8 °C 17.3 °C 1015.8 hPa Calm     53 % 0.0 mm 930.0 W/m2 CLR
13:29 27.9 °C 17.2 °C 1015.8 hPa Calm   2.4 km/h 52 % 0.0 mm 933.0 W/m2 CLR
13:34 28.1 °C 17.0 °C 1015.8 hPa ESE 13.0 km/h 13.0 km/h 51 % 0.0 mm 935.0 W/m2 CLR
13:39 28.1 °C 16.3 °C 1015.5 hPa ESE 5.6 km/h 5.6 km/h 49 % 0.0 mm 935.0 W/m2 CLR
13:44 28.2 °C 17.1 °C 1015.5 hPa NE 8.0 km/h 8.0 km/h 51 % 0.0 mm 937.0 W/m2 CLR
13:49 28.6 °C 17.1 °C 1015.5 hPa ENE 16.7 km/h 16.7 km/h 50 % 0.0 mm 935.0 W/m2 CLR
13:55 28.9 °C 17.4 °C 1015.5 hPa East 3.2 km/h 3.2 km/h 50 % 0.0 mm 937.0 W/m2 CLR
14:00 29.1 °C 17.3 °C 1015.5 hPa ENE 13.0 km/h 13.0 km/h 49 % 0.0 mm 939.0 W/m2 CLR
14:05 29.0 °C 16.9 °C 1015.1 hPa ESE 16.7 km/h 16.7 km/h 48 % 0.0 mm 940.0 W/m2 CLR
14:10 28.6 °C 17.5 °C 1015.1 hPa ENE 19.3 km/h 19.3 km/h 51 % 0.0 mm 937.0 W/m2 CLR
14:15 28.7 °C 17.6 °C 1015.1 hPa ENE 14.5 km/h 14.5 km/h 51 % 0.0 mm 933.0 W/m2 CLR
14:20 28.6 °C 17.4 °C 1014.8 hPa ENE 18.5 km/h 18.5 km/h 51 % 0.0 mm 937.0 W/m2 CLR
14:25 28.7 °C 17.2 °C 1014.8 hPa ENE 14.8 km/h 14.8 km/h 50 % 0.0 mm 933.0 W/m2 CLR
14:30 28.8 °C 17.4 °C 1014.8 hPa East 22.2 km/h 22.2 km/h 50 % 0.0 mm 935.0 W/m2 CLR
14:35 28.8 °C 17.7 °C 1014.8 hPa East 13.0 km/h 13.0 km/h 51 % 0.0 mm 928.0 W/m2 CLR
14:40 29.2 °C 18.0 °C 1014.8 hPa East 5.6 km/h 5.6 km/h 51 % 0.0 mm 921.0 W/m2 CLR
14:45 29.2 °C 17.7 °C 1014.4 hPa ENE 14.8 km/h 14.8 km/h 50 % 0.0 mm 921.0 W/m2 CLR
14:50 29.3 °C 17.8 °C 1014.4 hPa ESE 18.5 km/h 18.5 km/h 50 % 0.0 mm 919.0 W/m2 CLR
14:51 29.2 °C 18.1 °C 1014.4 hPa East 16.7 km/h 16.7 km/h 51 % 0.0 mm 918.0 W/m2 CLR
14:56 29.2 °C 18.3 °C 1014.4 hPa ESE 18.5 km/h 18.5 km/h 52 % 0.0 mm 912.0 W/m2 CLR
15:01 29.1 °C 18.3 °C 1014.4 hPa ESE 20.9 km/h 20.9 km/h 52 % 0.0 mm 907.0 W/m2 CLR
15:06 28.8 °C 18.2 °C 1014.1 hPa East 16.7 km/h 16.7 km/h 53 % 0.0 mm 904.0 W/m2 CLR
15:11 28.7 °C 18.4 °C 1014.1 hPa East 13.0 km/h 13.0 km/h 54 % 0.0 mm 895.0 W/m2 CLR
15:16 29.2 °C 18.6 °C 1014.1 hPa East 18.5 km/h 18.5 km/h 53 % 0.0 mm 895.0 W/m2 CLR
15:21 29.6 °C 18.9 °C 1014.1 hPa ENE 18.5 km/h 18.5 km/h 53 % 0.0 mm 882.0 W/m2 CLR
15:26 29.1 °C 18.6 °C 1013.8 hPa East 18.5 km/h 18.5 km/h 53 % 0.0 mm 879.0 W/m2 CLR
15:31 29.1 °C 19.1 °C 1013.8 hPa ENE 14.5 km/h 14.5 km/h 55 % 0.0 mm 865.0 W/m2 CLR
15:36 29.5 °C 18.9 °C 1013.8 hPa East 11.1 km/h 11.1 km/h 53 % 0.0 mm 860.0 W/m2 CLR
15:42 29.6 °C 18.7 °C 1013.8 hPa ESE 14.8 km/h 14.8 km/h 52 % 0.0 mm 856.0 W/m2 CLR
15:47 29.6 °C 18.7 °C 1013.4 hPa East 18.5 km/h 18.5 km/h 52 % 0.0 mm 844.0 W/m2 CLR
15:52 29.4 °C 18.9 °C 1013.4 hPa ESE 20.4 km/h 20.4 km/h 53 % 0.0 mm 831.0 W/m2 CLR
15:57 29.7 °C 19.1 °C 1013.4 hPa ESE 22.2 km/h 22.2 km/h 53 % 0.0 mm 833.0 W/m2 CLR
16:02 29.6 °C 18.9 °C 1013.4 hPa SE 18.5 km/h 18.5 km/h 53 % 0.0 mm 823.0 W/m2 CLR
16:07 29.5 °C 18.6 °C 1013.4 hPa East 16.7 km/h 16.7 km/h 52 % 0.0 mm 807.0 W/m2 CLR
16:12 29.5 °C 18.9 °C 1013.4 hPa ESE 19.3 km/h 19.3 km/h 53 % 0.0 mm 802.0 W/m2 CLR
16:17 29.4 °C 18.8 °C 1013.4 hPa East 20.4 km/h 20.4 km/h 53 % 0.0 mm 795.0 W/m2 CLR
16:22 29.5 °C 18.9 °C 1013.1 hPa ENE 18.5 km/h 18.5 km/h 53 % 0.0 mm 788.0 W/m2 CLR
16:27 29.2 °C 18.7 °C 1013.1 hPa East 20.4 km/h 20.4 km/h 53 % 0.0 mm 796.0 W/m2 CLR
16:32 29.3 °C 18.4 °C 1013.1 hPa ESE 18.5 km/h 18.5 km/h 52 % 0.0 mm 754.0 W/m2 CLR
16:37 29.4 °C 18.2 °C 1013.1 hPa East 16.7 km/h 16.7 km/h 51 % 0.0 mm 744.0 W/m2 CLR
16:42 29.6 °C 18.3 °C 1012.8 hPa ENE 22.2 km/h 22.2 km/h 51 % 0.0 mm 728.0 W/m2 CLR
16:47 29.4 °C 18.2 °C 1012.8 hPa ESE 22.2 km/h 22.2 km/h 51 % 0.0 mm 721.0 W/m2 CLR
16:52 29.5 °C 18.3 °C 1012.8 hPa ESE 19.3 km/h 19.3 km/h 51 % 0.0 mm 715.0 W/m2 CLR
16:57 29.4 °C 18.2 °C 1012.8 hPa ESE 18.5 km/h 18.5 km/h 51 % 0.0 mm 701.0 W/m2 CLR
17:02 29.7 °C 17.5 °C 1012.4 hPa SE 20.4 km/h 20.4 km/h 48 % 0.0 mm 694.0 W/m2 CLR
17:07 29.8 °C 17.3 °C 1012.4 hPa ESE 14.8 km/h 14.8 km/h 47 % 0.0 mm 680.0 W/m2 CLR
17:12 29.8 °C 17.7 °C 1012.4 hPa ESE 20.4 km/h 20.4 km/h 48 % 0.0 mm 670.0 W/m2 CLR
17:17 30.1 °C 17.5 °C 1012.4 hPa ESE 20.4 km/h 20.4 km/h 47 % 0.0 mm 657.0 W/m2 CLR
17:22 29.9 °C 16.7 °C 1012.4 hPa ESE 24.1 km/h 24.1 km/h 45 % 0.0 mm 649.0 W/m2 CLR
17:27 29.7 °C 16.5 °C 1012.1 hPa SE 25.9 km/h 25.9 km/h 45 % 0.0 mm 640.0 W/m2 CLR
17:32 29.6 °C 16.4 °C 1012.1 hPa SSE 29.6 km/h 29.6 km/h 45 % 0.0 mm 624.0 W/m2 CLR
17:37 29.6 °C 16.4 °C 1012.1 hPa SE 27.8 km/h 27.8 km/h 45 % 0.0 mm 610.0 W/m2 CLR
17:42 29.4 °C 16.9 °C 1012.1 hPa SE 20.4 km/h 20.4 km/h 47 % 0.0 mm 598.0 W/m2 CLR
17:47 29.6 °C 17.1 °C 1012.1 hPa ESE 27.8 km/h 27.8 km/h 47 % 0.0 mm 585.0 W/m2 CLR
17:49 29.5 °C 17.0 °C 1012.1 hPa ESE 20.4 km/h 20.4 km/h 47 % 0.0 mm 582.0 W/m2 CLR
17:54 29.3 °C 17.5 °C 1012.1 hPa East 16.7 km/h 16.7 km/h 49 % 0.0 mm 568.0 W/m2 CLR
17:59 29.2 °C 17.1 °C 1012.1 hPa ESE 18.5 km/h 18.5 km/h 48 % 0.0 mm 554.0 W/m2 CLR
18:04 29.5 °C 16.7 °C 1012.1 hPa ESE 19.3 km/h 19.3 km/h 46 % 0.0 mm 540.0 W/m2 CLR
18:09 29.1 °C 17.0 °C 1012.1 hPa ESE 20.9 km/h 20.9 km/h 48 % 0.0 mm 526.0 W/m2 CLR
18:14 29.3 °C 16.4 °C 1012.1 hPa SSE 14.8 km/h 14.8 km/h 46 % 0.0 mm 517.0 W/m2 CLR
18:19 29.3 °C 16.2 °C 1012.1 hPa SE 22.5 km/h 22.5 km/h 45 % 0.0 mm 459.0 W/m2 CLR
18:24 29.3 °C 15.8 °C 1012.1 hPa SE 22.2 km/h 22.2 km/h 44 % 0.0 mm 445.0 W/m2 CLR
18:29 29.4 °C 15.9 °C 1012.1 hPa ESE 13.0 km/h 13.0 km/h 44 % 0.0 mm 332.0 W/m2 CLR
18:34 29.3 °C 15.8 °C 1012.1 hPa SE 22.2 km/h 22.2 km/h 44 % 0.0 mm 214.0 W/m2 CLR
18:39 28.9 °C 15.4 °C 1011.7 hPa ESE 22.2 km/h 22.2 km/h 44 % 0.0 mm 225.0 W/m2 CLR
18:44 28.7 °C 15.6 °C 1011.7 hPa ESE 24.1 km/h 24.1 km/h 45 % 0.0 mm 221.0 W/m2 CLR
18:49 28.6 °C 15.8 °C 1011.7 hPa ESE 18.5 km/h 18.5 km/h 46 % 0.0 mm 353.0 W/m2 CLR
18:54 28.6 °C 15.8 °C 1011.7 hPa SE 18.5 km/h 18.5 km/h 46 % 0.0 mm 396.0 W/m2 CLR
18:59 28.6 °C 16.8 °C 1011.7 hPa ESE 16.7 km/h 16.7 km/h 49 % 0.0 mm 422.0 W/m2 CLR
19:04 28.2 °C 16.5 °C 1011.7 hPa SE 18.5 km/h 18.5 km/h 49 % 0.0 mm 427.0 W/m2 CLR
19:09 28.2 °C 15.8 °C 1011.7 hPa SE 24.1 km/h 24.1 km/h 47 % 0.0 mm 364.0 W/m2 CLR
19:14 28.3 °C 15.9 °C 1011.7 hPa SE 17.7 km/h 17.7 km/h 47 % 0.0 mm 304.0 W/m2 CLR
19:19 28.1 °C 16.1 °C 1011.7 hPa SE 20.4 km/h 20.4 km/h 48 % 0.0 mm 241.0 W/m2 CLR
19:24 28.1 °C 16.0 °C 1011.7 hPa SE 20.9 km/h 20.9 km/h 48 % 0.0 mm 174.0 W/m2 CLR
19:26 28.0 °C 15.9 °C 1011.7 hPa SE 22.2 km/h 22.2 km/h 48 % 0.0 mm 156.0 W/m2 CLR
19:31 27.7 °C 15.7 °C 1011.7 hPa SE 20.4 km/h 20.4 km/h 48 % 0.0 mm 105.0 W/m2 CLR
19:36 27.6 °C 15.6 °C 1011.7 hPa SSE 18.5 km/h 18.5 km/h 48 % 0.0 mm 97.0 W/m2 CLR
19:41 27.3 °C 15.6 °C 1011.4 hPa SSE 18.5 km/h 18.5 km/h 49 % 0.0 mm 97.0 W/m2 CLR
19:46 27.2 °C 15.8 °C 1011.4 hPa ESE 20.4 km/h 20.4 km/h 50 % 0.0 mm 199.0 W/m2 CLR
19:51 27.1 °C 15.7 °C 1011.4 hPa SE 20.4 km/h 20.4 km/h 50 % 0.0 mm 146.0 W/m2 CLR
19:56 27.0 °C 15.7 °C 1011.4 hPa SSE 20.4 km/h 20.4 km/h 50 % 0.0 mm 202.0 W/m2 CLR
20:01 26.9 °C 15.9 °C 1011.4 hPa SE 18.5 km/h 18.5 km/h 51 % 0.0 mm 149.0 W/m2 CLR
20:06 26.8 °C 15.8 °C 1011.4 hPa SE 18.5 km/h 18.5 km/h 51 % 0.0 mm 114.0 W/m2 CLR
20:16 26.6 °C 15.9 °C 1011.4 hPa SE 20.4 km/h 20.4 km/h 52 % 0.0 mm 118.0 W/m2 CLR
20:21 26.4 °C 16.1 °C 1011.4 hPa SE 13.0 km/h 13.0 km/h 53 % 0.0 mm 130.0 W/m2 CLR
20:26 26.2 °C 15.9 °C 1011.4 hPa ESE 9.3 km/h 9.3 km/h 53 % 0.0 mm 77.0 W/m2 CLR
20:31 26.1 °C 16.1 °C 1011.4 hPa SE 11.1 km/h 11.1 km/h 54 % 0.0 mm 84.0 W/m2 FEW
20:36 25.9 °C 16.2 °C 1011.4 hPa SSE 13.0 km/h 13.0 km/h 55 % 0.0 mm 72.0 W/m2 FEW
20:41 25.9 °C 15.9 °C 1011.4 hPa South 7.4 km/h 7.4 km/h 54 % 0.0 mm 62.0 W/m2 SCT
20:46 26.1 °C 14.8 °C 1011.4 hPa SSE 16.7 km/h 16.7 km/h 50 % 0.0 mm 51.0 W/m2 SCT
20:51 26.1 °C 14.5 °C 1011.4 hPa SSE 24.1 km/h 24.1 km/h 49 % 0.0 mm 35.0 W/m2 BKN
20:56 26.3 °C 13.4 °C 1011.4 hPa South 20.4 km/h 20.4 km/h 45 % 0.0 mm 25.0 W/m2 BKN
21:01 26.4 °C 13.2 °C 1011.4 hPa SSW 25.9 km/h 25.9 km/h 44 % 0.0 mm 19.0 W/m2 BKN
21:06 26.3 °C 13.1 °C 1011.7 hPa SSE 22.2 km/h 22.2 km/h 44 % 0.0 mm 18.0 W/m2 BKN
21:11 26.2 °C 13.0 °C 1011.7 hPa South 18.5 km/h 18.5 km/h 44 % 0.0 mm 12.0 W/m2 BKN
21:16 26.1 °C 12.9 °C 1011.7 hPa South 20.4 km/h 20.4 km/h 44 % 0.0 mm 7.0 W/m2 BKN
21:22 26.0 °C 12.8 °C 1011.7 hPa South 14.8 km/h 14.8 km/h 44 % 0.0 mm 0.0 W/m2 OVC
21:27 25.9 °C 13.1 °C 1011.7 hPa SSE 16.7 km/h 16.7 km/h 45 % 0.0 mm 0.0 W/m2 OVC
21:32 25.7 °C 12.9 °C 1011.7 hPa SE 16.1 km/h 16.1 km/h 45 % 0.0 mm 0.0 W/m2 OVC
21:37 25.6 °C 13.1 °C 1011.7 hPa SSE 11.1 km/h 12.2 km/h 46 % 0.0 mm 0.0 W/m2 OVC
21:42 25.4 °C 13.0 °C 1011.7 hPa SSE 13.0 km/h 13.0 km/h 46 % 0.0 mm 0.0 W/m2 CLR
21:47 25.3 °C 12.9 °C 1011.7 hPa SSE 13.0 km/h 13.0 km/h 46 % 0.0 mm 0.0 W/m2 CLR
21:52 25.3 °C 12.5 °C 1012.1 hPa SSE 9.3 km/h 9.3 km/h 45 % 0.0 mm 0.0 W/m2 CLR
21:57 25.3 °C 12.6 °C 1012.1 hPa South 18.5 km/h 18.5 km/h 45 % 0.0 mm 0.0 W/m2 CLR
22:02 25.3 °C 12.6 °C 1012.1 hPa SSE 14.8 km/h 14.8 km/h 45 % 0.0 mm 0.0 W/m2 CLR
22:07 25.2 °C 12.4 °C 1012.1 hPa SSE 13.0 km/h 13.0 km/h 45 % 0.0 mm 0.0 W/m2 CLR
22:12 25.2 °C 12.4 °C 1012.1 hPa SSE 18.5 km/h 18.5 km/h 45 % 0.0 mm 0.0 W/m2 CLR
22:17 25.0 °C 12.2 °C 1012.1 hPa SSE 13.0 km/h 13.0 km/h 45 % 0.0 mm 0.0 W/m2 CLR
22:22 24.9 °C 12.5 °C 1012.1 hPa South 6.4 km/h 6.4 km/h 46 % 0.0 mm 0.0 W/m2 CLR
22:27 24.6 °C 12.2 °C 1012.1 hPa SE 5.6 km/h 5.6 km/h 46 % 0.0 mm 0.0 W/m2 CLR
22:32 24.5 °C 12.4 °C 1012.1 hPa SE 5.6 km/h 5.6 km/h 47 % 0.0 mm 0.0 W/m2 CLR
22:37 24.4 °C 12.3 °C 1012.1 hPa SSE 8.0 km/h 8.0 km/h 47 % 0.0 mm 0.0 W/m2 CLR
22:42 24.3 °C 12.3 °C 1012.1 hPa SE 12.9 km/h 12.9 km/h 47 % 0.0 mm 0.0 W/m2 CLR
22:47 24.2 °C 12.2 °C 1012.1 hPa SE 5.6 km/h 5.6 km/h 47 % 0.0 mm 0.0 W/m2 CLR
22:52 24.1 °C 12.4 °C 1012.1 hPa Calm     48 % 0.0 mm 0.0 W/m2 CLR
22:57 23.8 °C 12.8 °C 1012.1 hPa Calm     50 % 0.0 mm 0.0 W/m2 CLR
23:02 23.7 °C 12.1 °C 1012.4 hPa SE 14.8 km/h 14.8 km/h 48 % 0.0 mm 0.0 W/m2 CLR
23:07 23.9 °C 11.9 °C 1012.4 hPa SSE 14.8 km/h 14.8 km/h 47 % 0.0 mm 0.0 W/m2 CLR
23:12 23.9 °C 11.9 °C 1012.4 hPa SSE 9.3 km/h 9.3 km/h 47 % 0.0 mm 0.0 W/m2 CLR
23:17 24.0 °C 12.0 °C 1012.4 hPa South 14.8 km/h 14.8 km/h 47 % 0.0 mm 0.0 W/m2 CLR
23:22 23.9 °C 11.9 °C 1012.4 hPa SSE 11.1 km/h 11.1 km/h 47 % 0.0 mm 0.0 W/m2 CLR
23:27 23.9 °C 12.2 °C 1012.4 hPa SE 5.6 km/h   48 % 0.0 mm 0.0 W/m2 CLR
23:28 23.9 °C 12.2 °C 1012.4 hPa Calm     48 % 0.0 mm 0.0 W/m2 CLR
23:33 23.8 °C 11.8 °C 1012.4 hPa SSE 12.9 km/h 12.9 km/h 47 % 0.0 mm 0.0 W/m2 CLR
23:38 23.8 °C 11.8 °C 1012.4 hPa SSE 7.4 km/h 7.4 km/h 47 % 0.0 mm 0.0 W/m2 CLR
23:43 23.7 °C 11.7 °C 1012.4 hPa SSE 13.0 km/h 13.0 km/h 47 % 0.0 mm 0.0 W/m2 CLR
23:48 23.7 °C 12.0 °C 1012.4 hPa Calm     48 % 0.0 mm 0.0 W/m2 CLR
23:58 23.7 °C 11.7 °C 1012.8 hPa SE 7.4 km/h 7.4 km/h 47 % 0.0 mm 0.0 W/m2 CLR
Lo Temps de Massalio
Compliments of Weather Underground - 1.25 mb